Location: *
(55.6049°S, 142.1985°W)
Time: 04:20:31
(UTC+00:00)

USA 308 - Pass Details

Date: 12 May 2021
Orbit: 568 x 576 km, 54.0° (Epoch: 10 May)

Event Time Altitude Azimuth Distance (km) Brightness Sun altitude
Exits shadow 15:40:36 17° 284° (WNW) 1,520 4.5 -12.9°
Maximum altitude 15:43:56 71° 5° (N) 620 3.1 -12.4°
Drops below altitude 10° 15:48:15 10° 89° (E) 1,902 6.9 -11.8°
Sets 15:50:30 0° 90° (E) 2,799 8.1 -11.5°
